Location: Guayaquil
(2.1667°S, 79.9000°W)
Time: 04:05:08
(UTC-05:00)

Envisat - Visible Passes

Search period start: 21 February 2018 00:00
Search period end: 03 March 2018 00:00
Orbit: 764 x 766 km, 98.2° (Epoch: 20 February)

Date Brightness Start Highest point End Pass type
(mag) Time Alt. Az. Time Alt. Az. Time Alt. Az.
21 Feb 2.9 20:21:51 10° S 20:26:57 81° WSW 20:32:00 10° NNW visible
22 Feb 3.5 19:45:43 10° SE 19:50:19 35° ENE 19:54:53 10° NNE visible
22 Feb 5.8 21:26:38 10° SW 21:29:01 13° WSW 21:31:11 11° WNW visible
23 Feb 4.6 19:11:46 10° E 19:15:51 10° NE 19:13:40 12° ENE visible
23 Feb 4.3 20:47:46 10° S 20:52:27 38° WSW 20:57:07 10° NW visible
24 Feb 2.8 20:10:46 10° SSE 20:15:50 75° ENE 20:20:53 10° N visible
25 Feb 3.9 19:35:02 10° SE 19:41:23 19° NE 19:43:21 10° NNE visible
25 Feb 5.4 21:14:30 10° SW 21:17:56 18° WSW 21:19:10 17° W visible
26 Feb 3.7 20:36:25 10° S 20:41:21 52° WSW 20:46:16 10° NNW visible
27 Feb 3.1 19:59:46 10° SSE 20:07:05 29° NNE 20:09:39 10° N visible
28 Feb 4.4 19:24:34 10° ESE 19:29:52 16° NE 19:31:37 10° NNE visible
28 Feb 5.0 21:02:45 10° SSW 21:10:04 14° NW 21:10:56 10° NW visible
01 Mar 3.4 20:25:11 10° S 20:32:53 29° NNW 20:35:17 10° NNW visible
02 Mar 4.0 19:48:54 10° SSE 19:55:41 27° NNE 19:58:19 10° N visible
02 Mar 5.9 21:30:36 10° WSW 21:35:53 - WNW 21:31:47 11° WSW visible
